Location: Austin
(30.3000°N, 97.7500°W)
Time: 11:18:00
(UTC-05:00)

UNK - Pass Details

Date: 18 May 2026
Orbit: 653 x 672 km, 98.4° (Epoch: 11 June)

Event Time Altitude Azimuth Distance (km) Brightness Sun altitude
Rises 05:13:53 0° 123° (ESE) 2,982 7.4 -16.2°
Reaches altitude 10° 05:17:08 10° 98° (E) 2,070 6.9 -15.6°
Maximum altitude 05:19:22 14° 68° (ENE) 1,833 7.2 -15.2°
Drops below altitude 10° 05:21:35 10° 38° (NE) 2,070 7.4 -14.8°
Sets 05:24:50 0° 13° (NNE) 2,983 7.8 -14.2°
